Location: Parador Hotel
(28.2240°N, 16.6271°W)
Time: 03:16:05
(UTC+00:00)

X-37B - Visible Passes

Search period start: 20 January 2022 00:00
Search period end: 30 January 2022 00:00
Orbit: 334 x 337 km, 45.0° (Epoch: 11 January)

Date Brightness Start Highest point End Pass type
(mag) Time Alt. Az. Time Alt. Az. Time Alt. Az.
21 Jan 3.1 20:13:34 10° S 20:13:53 12° S 20:13:53 12° S visible
22 Jan 3.3 20:33:19 10° SW 20:33:59 16° SW 20:33:59 16° SW visible
23 Jan 2.0 19:19:02 10° S 19:21:14 21° SE 19:22:47 14° E visible
24 Jan 0.2 19:38:44 10° SW 19:41:33 86° NW 19:42:46 30° NE visible
25 Jan 2.2 19:59:45 10° W 20:02:04 22° NNW 20:02:40 21° NNW visible
27 Jan 2.3 19:05:10 10° W 19:07:29 23° NNW 19:09:49 10° NNE visible
